Change the Weather History Date:

Saturday, January 5, 2013

  Actual Average Record
Temperature  
Mean Temperature 46 °F -  
Max Temperature 62 °F 65 °F 78 °F (1981)
Min Temperature 30 °F 41 °F 21 °F (1972)
Degree Days  
Heating Degree Days 19    
Moisture  
Dew Point 15 °F    
Average Humidity 33    
Maximum Humidity 51    
Minimum Humidity 14    
Precipitation  
Precipitation 0.00 in - - ()
Sea Level Pressure  
Sea Level Pressure 30.28 in    
Wind  
Wind Speed 2 mph (NW)    
Max Wind Speed 6 mph    
Max Gust Speed -    
Visibility 10 miles    
Events      
Averages and records for this station are not official NWS values.
T = Trace of Precipitation, MM = Missing Value Source: NWS Daily Summary

Daily Weather History Graph

Daily Weather History Graph

Search for Another Location

Airport or City:

Trip Planner

Search our weather history database for the weather conditions in past years. The results will help you decide how hot, cold, wet, or windy it might be!

Date:

Astronomy

Jan. 05, 2013 Rise Set
Actual Time 6:44 AM PST 4:45 PM PST
Civil Twilight 6:16 AM PST 5:12 PM PST
Nautical Twilight 5:45 AM PST 5:43 PM PST
Astronomical Twilight 5:15 AM PST 6:13 PM PST
Moon 12:04 AM PST (1/5) 11:29 AM PST (1/5)
Length of Visible Light 10h 55m
Length of Day
10h 01m
Last Quarter, 43% of the Moon is Illuminated
Jan 5
Last Quarter
Jan 11
New
Jan 18
First Quarter
Jan 26
Full
Feb 3
Last Quarter

Hourly Weather History & Observations

Time (PST) Temp. Windchill Dew Point Humidity Pressure Visibility Wind Dir Wind Speed Gust Speed Precip Events Conditions
12:52 AM 37.9 °F - 14.0 °F 38% 30.29 in 10.0 mi Calm Calm - N/A   Clear
1:52 AM 35.1 °F 32.2 °F 14.0 °F 42% 30.30 in 10.0 mi NNW 3.5 mph - N/A   Clear
2:52 AM 33.1 °F 30.0 °F 15.1 °F 48% 30.30 in 10.0 mi West 3.5 mph - N/A   Clear
3:52 AM 33.1 °F 30.0 °F 14.0 °F 46% 30.31 in 10.0 mi West 3.5 mph - N/A   Clear
4:52 AM 30.0 °F - 14.0 °F 51% 30.32 in 10.0 mi Calm Calm - N/A   Clear
5:52 AM 30.0 °F - 14.0 °F 51% 30.33 in 10.0 mi Calm Calm - N/A   Clear
6:52 AM 32.0 °F - 14.0 °F 48% 30.35 in 10.0 mi Calm Calm - N/A   Clear
7:52 AM 39.0 °F 34.8 °F 12.0 °F 33% 30.37 in 10.0 mi SW 5.8 mph - N/A   Clear
8:52 AM 43.0 °F - 12.9 °F 30% 30.38 in 10.0 mi Calm Calm - N/A   Clear
9:52 AM 48.0 °F - 14.0 °F 26% 30.37 in 10.0 mi Calm Calm - N/A   Clear
10:52 AM 50.0 °F - 12.9 °F 23% 30.35 in 10.0 mi Calm Calm - N/A   Clear
11:52 AM 55.0 °F - 12.9 °F 19% 30.31 in 10.0 mi Calm Calm - N/A   Clear
12:52 PM 59.0 °F - 12.9 °F 16% 30.28 in 10.0 mi North 3.5 mph - N/A   Clear
1:52 PM 60.1 °F - 12.0 °F 15% 30.25 in 10.0 mi Variable 4.6 mph - N/A   Clear
2:52 PM 62.1 °F - 12.0 °F 14% 30.24 in 10.0 mi NNE 4.6 mph - N/A   Clear
3:52 PM 61.0 °F - 12.0 °F 15% 30.22 in 10.0 mi Calm Calm - N/A   Clear
4:52 PM 55.0 °F - 18.0 °F 23% 30.23 in 10.0 mi SW 4.6 mph - N/A   Clear
5:52 PM 54.0 °F - 19.9 °F 26% 30.22 in 10.0 mi Calm Calm - N/A   Clear
6:52 PM 50.0 °F - 19.0 °F 29% 30.22 in 10.0 mi North 3.5 mph - N/A   Clear
7:52 PM 48.0 °F - 15.1 °F 27% 30.22 in 10.0 mi NNW 4.6 mph - N/A   Clear
8:52 PM 44.1 °F 40.8 °F 17.1 °F 34% 30.22 in 10.0 mi NNW 5.8 mph - N/A   Clear
9:52 PM 41.0 °F - 19.0 °F 41% 30.22 in 10.0 mi Calm Calm - N/A   Clear
10:52 PM 37.9 °F - 19.0 °F 47% 30.20 in 10.0 mi Calm Calm - N/A   Clear
11:52 PM 37.0 °F - 19.0 °F 48% 30.19 in 10.0 mi Calm Calm - N/A   Clear